This is the latest recevied weather packets stored in our database for station/object DO1MIT-10. If no packets are shown the sender has not sent any weather packets the latest 10 day(s).
| Time | Temp. | Humidity | Pressure | Rain* | Wind** | Luminosity | Snow |
|---|---|---|---|---|---|---|---|
| 1777707279 | 17.22° C | 60% | 1026.5 hPa | - | - | - | - |
| 1777706379 | 16.67° C | 62% | 1026.7 hPa | - | - | - | - |
| 1777705479 | 15.56° C | 63% | 1026.7 hPa | - | - | - | - |
| 1777704579 | 15° C | 64% | 1026.7 hPa | - | - | - | - |
| 1777703679 | 13.89° C | 65% | 1026.8 hPa | - | - | - | - |
| 1777702779 | 13.33° C | 66% | 1026.8 hPa | - | - | - | - |
| 1777701879 | 12.22° C | 67% | 1026.8 hPa | - | - | - | - |
| 1777700978 | 11.11° C | 68% | 1026.9 hPa | - | - | - | - |
| 1777700078 | 10.56° C | 69% | 1026.9 hPa | - | - | - | - |
| 1777699178 | 9.44° C | 70% | 1026.9 hPa | - | - | - | - |
| 1777698278 | 8.89° C | 71% | 1026.9 hPa | - | - | - | - |
| 1777697378 | 7.78° C | 71% | 1026.8 hPa | - | - | - | - |
| 1777696478 | 7.22° C | 72% | 1026.9 hPa | - | - | - | - |
| 1777695578 | 6.67° C | 72% | 1026.9 hPa | - | - | - | - |
| 1777694678 | 6.11° C | 72% | 1026.9 hPa | - | - | - | - |
| 1777693778 | 6.11° C | 73% | 1026.9 hPa | - | - | - | - |
| 1777692878 | 6.11° C | 73% | 1027 hPa | - | - | - | - |
| 1777691977 | 6.11° C | 72% | 1027.1 hPa | - | - | - | - |
| 1777691078 | 6.11° C | 73% | 1027.2 hPa | - | - | - | - |
| 1777690177 | 6.11° C | 72% | 1027 hPa | - | - | - | - |
| 1777689277 | 6.11° C | 72% | 1027.3 hPa | - | - | - | - |
| 1777688377 | 6.11° C | 72% | 1027.3 hPa | - | - | - | - |
| 1777687477 | 6.11° C | 72% | 1027.3 hPa | - | - | - | - |
| 1777686577 | 6.11° C | 72% | 1027.5 hPa | - | - | - | - |
| 1777685677 | 6.11° C | 71% | 1027.5 hPa | - | - | - | - |
* Rain since midnight (hover to see other rain measurements)
** Current wind speed in m/s (hover to see current wind gust speed)